User: anonymous   Login
Location: Beang
(6.6177°N, 10.9863°W)
Time: 02:39:10
(UTC+00:00)
Language:

Cosmos 1515 Rocket - Orbit

View from above orbital plane
View from above orbital plane
View from above satellite
View from above satellite

Ground track
Ground track

The orbit data is extracted from the following two-line orbital elements,

1 14552U 83122B   21127.53064171  .00000075  00000-0  61282-5 0  9999
2 14552  82.5258 186.8003 0017968 151.2039 209.0172 14.83547936998666
Epoch (UTC): 07 May 2021 12:44:07
Eccentricity: 0.0017968
inclination: 82.5258°
perigee height: 605 km
apogee height: 631 km
right ascension of ascending node: 186.8003°
argument of perigee: 151.2039°
revolutions per day: 14.83547936
mean anomaly at epoch: 209.0172°
orbit number at epoch: 99866

The dashed part of the orbit path shows where the satellite is in the earth's shadow,  

DLR